Temp
73 75 80 80 80 80 80 79 79 79 79 78 78 78 78 78 78 79 79 79 79 80 80 80 80 80 80 80 79 79 79 78 79 79 80 80 80 80 80 80 81 80 79
74 76 79 79 80 80 79 79 79 78 78 78 78 78 78 78 79 79 79 79 80 80 80 80 80 79 79 79 79 78 78 78 78 79 79 79 79 80 80 81 81 79 79
74 75 78 79 80 79 79 79 78 78 78 78 78 78 78 78 78 78 78 79 79 79 79 79 79 78 78 79 79 78 78 78 78 79 79 73 75 79 80 81 81 80 79
75 73 75 79 79 79 79 78 78 78 78 78 78 78 78 78 78 77 77 78 78 78 78 78 78 78 78 78 78 78 78 78 78 79 71 74 76 80 81 81 81 80 79
73 73 76 79 79 79 78 78 78 78 78 78 78 78 77 77 77 77 77 77 77 77 77 78 78 77 77 77 77 77 77 78 78 75 68 70 71 79 80 81 80 80 79
72 73 78 79 79 79 79 78 78 78 78 78 77 77 77 77 77 77 77 77 77 78 78 78 77 77 77 77 77 77 77 78 78 68 69 71 72 77 79 80 80 80 78
71 73 75 78 79 79 79 79 78 78 78 77 77 77 77 77 77 77 78 78 78 78 78 77 77 77 77 78 78 78 78 78 72 67 68 69 69 75 80 80 79 79 79
72 72 74 78 78 78 79 78 77 77 77 77 77 77 77 77 77 77 77 77 77 77 78 77 77 77 77 77 77 77 78 79 72 67 67 68 73 78 80 79 79 79 79
73 71 72 73 76 78 77 77 77 77 77 77 77 77 77 77 76 76 76 77 77 78 77 78 77 77 77 77 77 77 77 77 62 67 72 69 76 78 79 78 78 78 78
70 70 70 70 71 71 71 77 77 77 77 77 77 76 76 74 76 76 76 76 77 77 77 77 77 76 76 76 76 75 74 72 63 68 71 74 78 79 79 79 78 78 78
70 68 68 68 68 68 69 74 77 78 77 75 72 76 69 64 66 69 76 77 77 77 76 76 75 75 73 74 75 73 71 64 66 68 70 76 77 78 78 78 78 78 78
69 69 67 67 67 67 75 69 68 71 66 65 64 64 63 62 66 69 73 74 74 73 74 73 74 73 69 63 65 68 63 63 65 66 71 75 77 78 78 77 77 77 78
68 69 68 67 67 66 69 66 65 64 63 63 63 62 61 62 61 61 61 60 60 67 62 64 64 63 63 62 63 62 63 63 62 64 72 75 76 77 77 77 77 77 77
68 69 69 68 67 65 66 65 64 64 62 62 61 61 60 59 59 59 58 58 58 58 59 59 59 61 62 63 61 61 61 62 62 62 67 74 74 75 76 76 75 75 74
69 70 70 69 68 67 66 65 64 63 62 62 61 61 60 59 58 57 57 56 56 57 57 58 58 59 60 62 61 62 62 61 61 62 62 73 73 73 74 74 73 73 73
71 71 72 69 69 68 65 65 63 61 62 64 62 61 61 59 57 56 55 55 56 56 56 57 57 57 57 59 60 61 60 60 59 60 60 62 72 72 73 73 73 72 71
73 73 71 70 68 68 67 63 61 61 62 62 63 62 61 59 57 55 55 54 54 55 56 57 57 57 57 59 58 59 59 59 59 59 59 59 60 71 72 71 71 71 71
74 71 71 73 68 65 63 63 61 62 61 61 60 61 62 61 58 55 54 54 54 54 54 55 54 55 54 55 55 56 57 58 58 58 58 57 57 59 67 71 72 72 71
74 72 71 70 68 67 65 64 62 60 60 60 59 61 61 61 59 55 54 53 53 52 52 53 53 52 52 53 57 55 55 56 57 59 57 56 57 57 57 69 70 71 70
73 72 70 70 68 67 64 63 60 59 58 58 58 58 59 59 58 54 53 53 52 51 51 52 52 52 50 49 58 56 54 59 55 55 56 58 56 55 55 56 56 64 70
70 69 69 68 66 66 64 62 60 58 56 56 57 59 59 58 57 54 52 52 51 50 49 51 50 50 50 47 50 52 54 58 53 55 54 54 55 55 56 55 55 55 59
68 68 67 66 66 64 68 61 60 60 56 56 56 57 57 57 56 55 53 51 50 50 50 49 48 48 47 46 48 46 47 52 52 53 53 54 52 53 56 57 55 55 55
68 67 65 64 64 63 62 58 57 56 55 54 53 53 55 57 56 54 53 51 50 49 48 47 47 47 47 48 46 48 45 44 45 50 51 51 51 51 51 52 55 55 54
65 65 66 62 63 63 61 59 59 58 55 53 53 53 54 57 56 56 54 52 50 49 48 48 49 46 46 46 47 49 45 45 43 44 48 49 50 51 49 50 51 53 53
65 65 64 62 63 64 61 61 58 57 53 53 51 53 51 52 55 57 54 52 51 50 48 49 48 47 46 45 44 45 45 44 43 43 41 45 48 48 48 49 50 51 51
66 66 65 63 63 62 60 60 59 56 54 54 50 50 50 50 51 54 55 52 51 50 50 49 47 47 46 45 44 44 44 45 43 43 41 40 41 47 47 48 48 49 50
MSLP
1013.84 1013.87 1014.26 1014.46 1014.48 1014.52 1014.77 1014.83 1014.92 1015.05 1015.09 1015.03 1015.10 1015.14 1015.16 1015.09 1015.05 1015.03 1014.94 1014.86 1014.73 1014.59 1014.51 1014.53 1014.48 1014.37 1014.33 1014.32 1014.31 1014.32 1014.34 1014.34 1014.28 1014.09 1013.91 1013.82 1013.71 1013.71 1013.76 1013.78 1013.64 1013.58 1013.59
1013.57 1014.07 1014.32 1014.57 1014.75 1014.76 1014.98 1015.16 1015.19 1015.26 1015.28 1015.29 1015.34 1015.41 1015.38 1015.29 1015.20 1015.16 1015.16 1014.99 1014.87 1014.77 1014.69 1014.71 1014.79 1014.62 1014.47 1014.35 1014.37 1014.32 1014.28 1014.28 1014.32 1014.21 1013.99 1013.89 1013.79 1013.64 1013.58 1013.59 1013.62 1013.66 1013.67
1013.84 1014.11 1014.52 1014.56 1014.85 1014.98 1015.13 1015.28 1015.47 1015.50 1015.49 1015.54 1015.60 1015.53 1015.52 1015.47 1015.34 1015.38 1015.38 1015.30 1015.20 1015.12 1015.06 1014.97 1014.97 1014.97 1014.75 1014.63 1014.54 1014.47 1014.32 1014.23 1014.14 1014.06 1014.03 1013.97 1013.86 1013.55 1013.43 1013.48 1013.52 1013.59 1013.67
1013.84 1014.38 1014.49 1014.78 1015.03 1015.08 1015.20 1015.43 1015.53 1015.58 1015.63 1015.71 1015.71 1015.72 1015.72 1015.74 1015.67 1015.66 1015.56 1015.56 1015.45 1015.45 1015.38 1015.33 1015.22 1015.16 1014.94 1014.81 1014.71 1014.59 1014.43 1014.25 1014.07 1013.93 1014.03 1013.84 1013.71 1013.37 1013.20 1013.13 1013.30 1013.54 1013.73
1014.17 1014.57 1014.87 1014.88 1015.02 1015.26 1015.51 1015.67 1015.74 1015.83 1015.79 1015.84 1015.94 1015.98 1015.91 1015.98 1015.98 1015.86 1015.86 1015.70 1015.59 1015.60 1015.47 1015.37 1015.35 1015.23 1014.98 1014.93 1014.78 1014.68 1014.53 1014.22 1013.98 1013.99 1013.92 1013.58 1013.37 1012.96 1012.70 1012.41 1013.02 1013.18 1013.51
1014.59 1014.84 1014.96 1015.21 1015.39 1015.73 1015.91 1015.92 1016.07 1016.09 1016.17 1016.30 1016.34 1016.34 1016.33 1016.18 1016.20 1016.10 1015.98 1015.98 1015.86 1015.81 1015.65 1015.58 1015.53 1015.34 1015.05 1014.93 1014.69 1014.54 1014.49 1014.20 1013.89 1014.01 1013.89 1013.46 1013.05 1012.66 1012.29 1012.15 1012.61 1013.01 1013.28
1015.05 1015.08 1015.23 1015.47 1015.65 1015.97 1016.12 1016.22 1016.40 1016.58 1016.64 1016.71 1016.67 1016.57 1016.58 1016.56 1016.48 1016.31 1016.34 1016.29 1016.03 1015.88 1015.93 1015.84 1015.58 1015.37 1015.09 1014.83 1014.61 1014.41 1014.20 1014.05 1013.86 1013.89 1013.73 1013.45 1013.03 1012.39 1012.20 1012.50 1012.81 1013.03 1013.23
1014.96 1015.16 1015.33 1015.62 1015.86 1015.98 1016.22 1016.46 1016.66 1016.76 1016.84 1016.83 1016.85 1016.90 1016.83 1016.77 1016.84 1016.62 1016.51 1016.41 1016.21 1016.04 1016.10 1015.89 1015.49 1015.26 1015.09 1014.84 1014.64 1014.38 1014.23 1013.97 1014.02 1013.93 1013.65 1013.36 1013.01 1012.62 1012.68 1013.02 1013.22 1013.36 1013.43
1015.06 1015.29 1015.66 1015.86 1015.90 1016.04 1016.23 1016.47 1016.74 1016.85 1016.90 1016.96 1017.02 1017.08 1017.05 1017.05 1017.07 1016.84 1016.81 1016.59 1016.41 1016.16 1016.26 1015.95 1015.75 1015.51 1015.27 1015.13 1014.77 1014.47 1014.35 1014.29 1014.40 1014.09 1013.55 1013.31 1013.08 1013.08 1013.24 1013.40 1013.49 1013.56 1013.50
1015.47 1015.18 1015.63 1015.91 1016.10 1016.22 1016.32 1016.47 1016.70 1016.86 1017.04 1017.13 1017.16 1017.22 1017.20 1017.34 1017.08 1017.07 1016.99 1016.71 1016.65 1016.73 1016.47 1016.30 1016.15 1015.80 1015.60 1015.35 1015.07 1014.89 1014.76 1014.70 1014.62 1014.34 1014.07 1013.66 1013.41 1013.41 1013.45 1013.41 1013.43 1013.40 1013.45
1015.82 1015.85 1015.73 1016.08 1016.20 1016.42 1016.55 1016.61 1016.71 1016.93 1017.07 1017.22 1017.23 1017.31 1017.63 1017.72 1017.59 1017.49 1017.18 1017.10 1017.07 1017.03 1016.80 1016.76 1016.46 1016.31 1016.01 1015.74 1015.53 1015.47 1015.27 1015.26 1014.92 1014.82 1014.62 1014.23 1013.97 1013.85 1013.72 1013.65 1013.50 1013.43 1013.36
1015.54 1015.90 1015.93 1015.90 1016.20 1016.44 1016.41 1016.70 1017.07 1017.19 1017.46 1017.55 1017.64 1017.76 1017.93 1017.97 1017.75 1017.73 1017.67 1017.66 1017.36 1017.37 1017.30 1017.09 1016.96 1016.79 1016.48 1016.41 1016.35 1016.23 1016.01 1015.72 1015.48 1015.27 1014.97 1014.57 1014.29 1014.12 1014.02 1013.93 1013.78 1013.61 1013.45
1014.56 1015.41 1015.75 1015.86 1015.93 1016.35 1016.48 1017.01 1017.50 1017.79 1017.96 1017.99 1017.99 1018.04 1018.14 1018.25 1018.07 1018.07 1018.16 1018.27 1018.11 1017.84 1017.86 1017.58 1017.57 1017.36 1016.91 1016.92 1016.98 1016.85 1016.48 1016.28 1016.23 1015.85 1015.28 1014.98 1014.66 1014.47 1014.36 1014.22 1014.03 1013.89 1013.75
1014.31 1014.77 1015.28 1015.46 1015.79 1016.45 1016.83 1017.27 1017.49 1017.71 1017.91 1018.11 1018.29 1018.35 1018.36 1018.52 1018.54 1018.66 1018.77 1018.80 1018.69 1018.41 1018.29 1018.17 1018.13 1017.69 1017.56 1017.38 1017.43 1017.33 1017.14 1016.98 1016.81 1016.54 1015.98 1015.53 1015.26 1014.96 1014.76 1014.48 1014.47 1014.34 1014.19
1013.56 1013.90 1014.38 1014.96 1015.46 1016.10 1016.72 1017.20 1017.59 1017.86 1018.01 1018.25 1018.18 1018.48 1018.43 1018.76 1018.97 1019.16 1019.25 1019.17 1019.03 1018.73 1018.75 1018.53 1018.40 1018.39 1018.23 1017.93 1017.79 1017.70 1017.65 1017.49 1017.28 1017.18 1016.92 1016.23 1015.96 1015.61 1015.57 1015.26 1015.23 1015.01 1014.91
1012.88 1013.11 1013.68 1014.46 1014.90 1015.61 1016.28 1016.74 1017.37 1017.86 1018.13 1018.33 1018.30 1018.50 1018.57 1018.94 1019.23 1019.55 1019.57 1019.51 1019.38 1019.12 1018.89 1018.80 1018.74 1018.70 1018.66 1018.30 1018.22 1018.05 1018.06 1017.99 1017.91 1017.75 1017.62 1017.38 1016.79 1016.62 1016.28 1016.05 1015.92 1015.83 1015.82
1012.04 1012.37 1012.85 1013.68 1014.22 1015.01 1015.77 1016.50 1017.14 1017.64 1017.91 1018.07 1018.16 1018.39 1018.59 1018.99 1019.24 1019.49 1019.70 1019.62 1019.59 1019.41 1019.20 1019.07 1019.00 1018.90 1018.90 1018.83 1018.90 1018.64 1018.49 1018.58 1018.49 1018.44 1018.28 1018.09 1017.87 1017.27 1016.91 1016.76 1016.65 1016.64 1016.47
1011.19 1011.99 1012.84 1013.62 1014.34 1014.91 1015.42 1016.19 1016.84 1017.54 1017.72 1017.80 1018.15 1018.20 1018.43 1018.90 1019.16 1019.53 1019.86 1019.98 1019.82 1019.65 1019.58 1019.41 1019.48 1019.39 1019.42 1019.42 1019.41 1019.31 1019.22 1019.03 1018.94 1018.88 1018.80 1018.72 1018.59 1018.25 1017.75 1017.50 1017.26 1017.15 1017.10
1010.99 1011.93 1012.63 1013.40 1014.36 1015.12 1015.79 1016.28 1016.80 1017.24 1017.65 1017.69 1017.97 1018.29 1018.58 1019.03 1019.30 1019.68 1020.16 1020.32 1020.02 1019.97 1019.85 1019.76 1019.78 1019.71 1019.90 1019.85 1019.75 1019.84 1019.82 1019.64 1019.43 1019.22 1019.23 1019.33 1019.27 1018.92 1018.59 1018.11 1017.97 1017.87 1017.87
1011.36 1012.22 1013.04 1013.73 1014.76 1015.41 1016.18 1016.86 1017.35 1017.97 1017.99 1018.09 1018.04 1018.37 1018.86 1019.17 1019.45 1019.88 1020.28 1020.41 1020.36 1020.24 1020.07 1019.84 1019.84 1019.98 1020.12 1020.23 1020.04 1020.16 1020.11 1019.94 1019.87 1019.89 1019.68 1019.66 1019.68 1019.76 1019.58 1019.30 1018.98 1018.47 1018.44
1011.64 1012.68 1013.62 1014.36 1014.69 1014.89 1016.07 1016.92 1017.82 1018.28 1018.55 1018.86 1018.36 1018.06 1018.52 1019.16 1019.55 1019.93 1020.41 1020.76 1020.71 1020.68 1020.54 1020.28 1020.36 1020.45 1020.48 1020.30 1020.47 1020.66 1020.59 1020.49 1020.55 1020.63 1020.31 1020.39 1020.40 1020.20 1020.00 1019.95 1019.79 1019.45 1019.18
1011.99 1013.25 1013.63 1014.24 1014.76 1014.42 1014.95 1016.45 1017.41 1018.18 1018.80 1018.91 1018.81 1018.43 1018.61 1019.20 1019.62 1020.09 1020.46 1020.87 1020.93 1020.95 1020.56 1020.47 1020.55 1020.90 1020.92 1020.56 1020.85 1021.30 1021.39 1021.28 1021.04 1021.02 1020.79 1020.78 1020.88 1020.63 1020.40 1020.24 1020.21 1020.05 1019.61
1012.77 1013.12 1014.07 1015.02 1016.58 1017.09 1015.86 1015.94 1017.58 1018.28 1018.89 1019.63 1019.49 1019.35 1019.24 1019.38 1019.77 1020.06 1020.49 1020.80 1020.92 1021.04 1021.07 1021.06 1021.04 1021.16 1021.42 1021.11 1020.84 1021.16 1022.01 1022.21 1022.06 1021.51 1021.48 1021.24 1021.01 1020.93 1020.87 1020.79 1020.64 1020.33 1020.03
1013.50 1013.58 1013.45 1014.41 1014.97 1016.04 1017.72 1017.54 1017.02 1017.95 1018.84 1019.47 1019.44 1019.36 1019.54 1019.25 1019.61 1020.03 1020.52 1020.92 1021.03 1021.14 1021.27 1021.30 1021.20 1021.37 1021.34 1021.65 1021.27 1021.55 1021.78 1022.14 1022.46 1022.56 1021.95 1021.64 1021.35 1021.29 1021.16 1020.80 1020.70 1020.60 1020.35
1015.03 1014.83 1015.15 1014.52 1014.61 1014.86 1018.76 1018.65 1018.31 1017.97 1018.23 1019.07 1019.77 1019.57 1019.94 1019.76 1019.76 1019.91 1020.44 1020.83 1021.01 1021.02 1021.16 1021.28 1021.41 1021.56 1021.57 1021.77 1021.85 1022.10 1022.14 1022.28 1022.56 1022.93 1023.23 1022.62 1021.98 1021.71 1021.35 1021.00 1020.75 1020.58 1020.47
1014.79 1014.81 1015.98 1016.04 1014.97 1016.40 1017.64 1017.77 1018.21 1018.27 1018.51 1019.15 1019.52 1019.80 1019.60 1019.81 1020.20 1020.20 1020.48 1020.71 1020.95 1020.92 1021.08 1021.23 1021.44 1021.74 1021.97 1022.02 1022.14 1022.24 1022.50 1022.75 1023.09 1023.20 1023.54 1023.49 1023.20 1022.18 1021.72 1021.26 1021.05 1020.81 1020.61
Wind_Speed
7 7 12 12 13 14 13 13 13 12 12 12 11 11 11 11 11 10 10 10 9 10 10 10 10 10 9 8 8 7 7 7 6 6 5 5 4 3 4 5 7 4 7
11 8 13 12 13 14 13 12 12 11 11 10 10 10 10 10 9 9 9 8 9 8 9 9 9 10 9 9 9 9 9 9 8 7 6 5 6 7 8 7 7 4 6
11 9 10 14 14 13 13 12 11 10 10 9 9 9 8 8 11 12 11 11 11 12 11 9 9 9 10 10 9 10 9 10 10 9 9 4 4 7 9 10 8 7 7
10 6 7 14 13 13 13 11 11 10 10 8 8 9 11 10 10 10 10 9 9 9 9 9 9 9 10 10 10 10 11 10 10 10 5 4 5 8 9 14 12 9 8
8 6 7 14 14 13 12 11 10 9 9 9 9 8 9 9 9 9 9 9 9 9 10 10 10 11 11 11 11 12 11 11 11 8 6 6 5 8 10 14 14 13 11
7 6 11 13 12 11 11 10 8 9 9 8 9 8 8 9 9 9 9 9 9 9 9 10 11 12 12 12 12 12 11 11 10 4 5 7 7 11 9 16 13 10 11
6 6 8 12 12 11 10 10 9 8 8 7 7 8 8 8 8 9 9 9 10 11 11 11 11 11 11 12 12 13 12 9 6 6 5 6 7 14 8 10 9 7 9
10 7 7 12 12 11 10 9 8 7 6 7 7 7 7 6 5 7 9 10 11 11 11 11 10 10 11 13 15 15 14 12 8 6 6 5 8 5 3 2 1 3 5
8 7 5 5 10 13 11 10 8 7 6 6 6 5 5 5 5 7 8 9 11 11 11 12 10 11 13 14 15 15 13 15 7 6 8 4 3 2 6 6 4 5 9
5 6 7 6 5 5 5 10 8 7 6 3 2 3 5 8 7 5 7 8 11 12 10 13 14 13 13 15 17 17 15 15 7 7 7 8 7 4 5 5 5 7 8
6 4 6 6 6 5 5 5 8 9 6 8 9 6 7 4 5 8 11 12 11 11 12 15 14 15 14 16 17 16 14 4 5 5 4 16 14 12 12 11 8 7 8
12 9 5 6 6 6 5 4 4 5 4 4 5 6 4 5 5 6 9 12 14 13 14 13 12 14 11 5 5 10 4 5 5 4 5 16 14 12 11 10 9 10 8
15 9 9 6 6 6 4 4 2 3 3 3 6 5 4 4 4 4 3 4 4 9 4 6 6 4 7 5 5 5 5 6 4 4 8 15 15 14 12 12 9 9 9
15 13 11 8 7 5 3 3 4 4 3 3 4 5 4 3 4 4 3 5 4 4 5 4 3 5 6 6 6 6 6 5 5 4 7 17 15 14 13 15 15 13 11
16 16 14 12 9 7 6 4 4 4 3 3 5 4 4 4 4 4 4 4 4 4 4 5 5 4 5 5 5 6 6 6 6 4 4 19 18 20 17 19 20 21 21
15 16 15 13 10 8 7 7 5 4 4 2 4 4 6 5 4 4 4 4 4 4 4 4 4 3 4 4 5 5 5 5 6 6 5 6 20 19 18 19 19 20 21
17 17 16 15 11 12 11 8 6 5 5 4 4 6 6 5 5 5 4 4 3 3 4 4 4 4 5 4 5 5 4 5 6 7 6 5 7 17 20 19 19 17 19
18 17 15 11 11 10 11 9 7 5 4 5 4 4 6 6 6 5 4 4 4 4 3 4 4 4 4 4 2 3 3 4 5 6 5 4 4 4 12 19 19 19 19
17 17 16 15 13 13 11 8 8 7 4 4 4 4 6 6 6 5 4 3 4 4 3 3 3 3 4 3 1 2 3 3 4 4 6 6 6 5 4 14 17 17 17
13 14 13 13 12 11 7 6 5 3 3 3 4 5 6 5 6 5 4 4 3 4 4 4 5 5 3 2 3 3 2 2 4 3 4 3 5 6 5 6 5 6 17
11 13 13 13 13 12 9 8 5 5 3 2 3 7 7 6 6 6 4 4 3 5 3 4 2 5 6 4 2 3 4 4 5 4 3 4 4 4 5 5 4 4 4
12 8 8 7 9 10 11 4 4 5 2 2 2 5 6 7 6 6 6 4 3 3 6 5 5 2 2 4 4 2 2 3 4 4 3 3 3 2 2 2 2 2 2
11 10 12 11 8 11 3 8 5 5 4 2 1 3 3 6 6 7 6 5 4 3 4 3 3 4 3 4 7 4 2 1 2 3 4 4 4 2 3 4 3 3 1
8 12 14 14 13 10 12 2 13 6 5 3 3 3 4 6 6 6 6 5 4 3 5 3 3 3 2 4 3 5 6 3 2 3 3 4 4 4 1 1 2 3 5
7 5 1 11 14 17 6 5 3 6 4 4 2 7 3 3 6 6 6 6 5 4 4 5 5 6 3 3 3 2 4 4 4 3 1 5 4 3 3 3 3 4 4
7 7 11 8 6 8 10 8 7 7 7 7 5 5 4 2 3 4 5 5 4 5 5 4 4 5 4 4 2 3 2 3 1 3 2 2 2 4 3 4 1 3 4
Wind_Direction
169 149 149 138 123 114 110 104 98 94 90 87 83 81 79 79 76 71 70 66 58 54 49 47 43 37 31 29 29 23 17 15 13 9 358 343 322 273 250 244 221 181 162
132 138 143 135 124 118 113 108 105 103 98 95 93 88 85 82 77 72 68 68 65 67 64 53 40 35 30 26 20 19 15 10 6 359 345 336 313 279 241 236 197 186 188
130 136 139 135 131 124 118 114 113 110 107 102 100 99 98 93 79 68 61 53 48 40 43 44 38 28 27 23 18 13 11 8 3 357 359 330 288 266 245 227 216 200 201
123 117 135 136 133 127 125 129 127 123 119 117 112 104 89 78 76 71 67 58 54 47 42 37 32 25 20 13 6 3 1 360 357 1 342 316 298 290 260 217 209 205 205
118 127 147 140 137 134 136 136 132 133 131 116 106 102 96 86 77 71 59 54 48 38 34 27 20 15 13 6 360 355 352 348 345 356 328 309 292 286 269 227 196 194 195
122 127 138 139 132 138 139 136 145 136 123 116 103 96 91 88 74 63 55 48 44 36 35 32 28 26 22 13 6 357 350 348 345 341 314 309 305 296 270 177 187 188 198
121 123 131 139 141 143 141 135 127 119 113 107 107 103 92 85 70 59 54 55 47 38 30 26 23 20 19 14 9 7 5 355 346 326 312 301 302 303 205 182 194 204 222
137 132 142 152 154 150 146 139 126 126 127 118 107 101 88 82 60 43 37 38 36 27 20 17 20 22 13 13 10 8 13 19 5 334 326 302 309 324 126 71 225 293 293
138 133 134 140 155 154 150 141 146 143 135 125 120 110 85 48 15 15 5 26 34 31 33 41 31 23 26 26 32 43 41 36 25 6 8 355 356 20 50 17 6 297 285
139 141 149 160 147 145 151 155 153 141 132 123 154 122 58 25 4 345 16 34 54 44 44 27 28 24 48 52 53 50 50 42 27 27 24 34 35 3 353 12 21 10 351
153 166 158 157 158 159 156 162 146 138 99 79 54 82 50 29 23 28 64 54 50 43 33 31 43 53 51 52 53 51 46 21 33 35 22 37 39 41 39 30 9 349 341
178 189 180 166 168 164 164 141 129 95 80 80 71 76 56 43 45 52 51 40 36 28 28 25 52 55 50 39 39 39 18 22 32 12 30 36 34 37 29 20 10 2 331
177 181 186 173 170 177 153 124 89 83 71 61 66 73 63 46 42 47 40 22 19 15 11 22 33 24 48 44 42 30 19 27 16 9 36 41 42 40 31 18 13 8 14
181 185 181 182 172 169 128 136 130 134 120 111 81 67 67 50 51 45 40 18 15 16 19 26 27 32 46 53 46 47 37 38 26 13 16 48 43 35 38 41 45 45 42
181 183 183 178 173 162 152 144 148 124 120 114 92 72 72 66 68 46 32 24 26 23 25 27 31 41 42 48 44 57 52 39 37 28 10 57 53 51 51 56 58 59 57
183 184 177 181 173 157 155 159 148 134 126 117 97 92 73 87 74 59 49 40 37 31 19 36 41 46 59 57 59 52 60 47 40 35 28 23 52 50 53 57 63 67 66
190 184 179 177 163 163 162 149 144 149 149 143 117 93 89 93 86 85 75 50 23 19 30 29 37 40 55 42 58 48 55 53 48 41 30 26 23 51 55 61 58 57 63
177 183 175 168 159 155 146 149 142 152 159 131 115 114 110 106 104 88 68 42 7 25 30 48 25 29 44 43 61 54 54 62 67 54 48 39 28 26 48 58 55 56 65
180 170 168 161 156 150 143 144 142 149 147 136 128 103 95 104 92 92 68 41 28 37 33 45 50 71 37 20 77 76 68 69 55 69 58 45 34 30 30 67 63 61 58
173 170 154 149 149 141 127 123 107 119 114 123 118 108 96 100 98 100 78 64 37 43 33 48 69 41 58 9 37 79 58 84 81 55 67 56 43 30 26 31 18 53 60
162 150 157 152 163 147 145 142 141 155 132 102 119 126 112 120 108 108 97 76 41 53 33 40 70 48 21 12 81 24 31 45 48 39 26 34 37 34 37 33 21 27 37
152 140 152 161 163 160 156 132 126 141 103 134 138 107 121 118 117 121 111 103 68 66 43 45 47 58 39 10 115 94 28 354 24 19 4 21 36 356 359 30 65 38 67
125 128 101 85 44 342 346 114 97 70 67 69 57 92 122 119 116 122 124 127 103 84 66 54 57 67 77 25 56 124 82 223 332 344 7 6 352 9 5 353 306 272 312
119 123 118 99 87 58 288 238 153 146 154 184 168 134 149 142 141 138 136 130 118 106 81 67 57 63 111 48 28 41 66 121 128 3 346 342 359 46 347 302 261 286 290
68 72 157 141 159 156 231 254 214 151 130 118 121 137 153 154 140 145 146 142 128 114 112 97 73 63 50 88 77 38 51 59 71 105 348 326 347 4 335 304 274 253 292
101 125 300 279 141 164 179 188 197 176 143 149 157 162 165 163 145 151 155 159 147 133 127 112 99 88 82 81 82 73 91 103 30 75 74 300 272 305 327 357 302 263 270